La Grange, TX

3:07 PM CDT on March 30, 2017 (GMT -0500)
La Grange

Weather History for K3T5 - November, 2012

Change the Weather History Date:

Tuesday, November 27, 2012

  Actual Average (KAUS) Record (KAUS)
Temperature  
Mean Temperature 52 °F -  
Max Temperature 62 °F 65 °F 87 °F (2005)
Min Temperature 42 °F 43 °F 22 °F (2010)
Degree Days  
Heating Degree Days 13    
Growing Degree Days 2 (Base 50)    
Moisture  
Dew Point 43 °F    
Average Humidity 68    
Maximum Humidity 93    
Minimum Humidity 51    
Precipitation  
Precipitation 0.00 in - - ()
Sea Level Pressure  
Sea Level Pressure 30.31 in    
Wind  
Wind Speed 10 mph (North)    
Max Wind Speed 15 mph    
Max Gust Speed 29 mph    
Visibility 10 miles    
Events Rain    
Averages and records for this station are not official NWS values.
T = Trace of Precipitation, MM = Missing Value Source: NWS Daily Summary

Daily Weather History Graph

Daily Weather History Graph

Search for Another Location

Airport or City:

Trip Planner

Search our weather history database for the weather conditions in past years. The results will help you decide how hot, cold, wet, or windy it might be!

Date:

Astronomy

Nov. 27, 2012 Rise Set
Actual Time 7:03 AM CST 5:28 PM CST
Civil Twilight 6:37 AM CST 5:53 PM CST
Nautical Twilight 6:07 AM CST 6:23 PM CST
Astronomical Twilight 5:38 AM CST 6:52 PM CST
Moon 4:59 PM CST (11/27) 6:10 AM CST (11/27)
Length of Visible Light 11h 16m
Length of Day
10h 25m
Waxing Gibbous, 99% of the Moon is Illuminated
Nov 27
Waxing Gibbous
Nov 28
Full
Dec 6
Last Quarter
Dec 13
New
Dec 19
First Quarter

Hourly Weather History & Observations

Time (CST) Temp. Dew Point Humidity Pressure Visibility Wind Dir Wind Speed Gust Speed Precip Events Conditions
12:15 AM 62.6 °F 48.2 °F 59% 30.17 in 10.0 mi NNW 13.8 mph 19.6 mph N/A   Clear
12:35 AM 60.8 °F 48.2 °F 63% 30.15 in 10.0 mi North 11.5 mph 28.8 mph N/A Rain Light Rain
4:15 AM 53.6 °F 44.6 °F 72% 30.17 in 10.0 mi NNW 11.5 mph 19.6 mph N/A   Clear
4:35 AM 53.6 °F 44.6 °F 72% 30.19 in 10.0 mi North 11.5 mph 17.3 mph N/A   Clear
4:55 AM 53.6 °F 44.6 °F 72% 30.20 in 10.0 mi North 15.0 mph 20.7 mph N/A   Light Drizzle
5:15 AM 51.8 °F 44.6 °F 76% 30.20 in 10.0 mi NNW 12.7 mph 18.4 mph N/A Rain Light Rain
6:35 AM 53.6 °F 42.8 °F 67% 30.26 in 10.0 mi North 12.7 mph 18.4 mph N/A   Overcast
6:55 AM 53.6 °F 42.8 °F 67% 30.27 in 10.0 mi North 10.4 mph - N/A   Overcast
7:15 AM 53.6 °F 42.8 °F 67% 30.27 in 10.0 mi North 9.2 mph - N/A   Overcast
7:35 AM 53.6 °F 42.8 °F 67% 30.28 in 10.0 mi North 9.2 mph 17.3 mph N/A   Overcast
7:55 AM 51.8 °F 41.0 °F 67% 30.30 in 10.0 mi North 13.8 mph 24.2 mph N/A   Overcast
8:15 AM 51.8 °F 42.8 °F 71% 30.32 in 10.0 mi North 15.0 mph 19.6 mph N/A   Mostly Cloudy
8:35 AM 51.8 °F 41.0 °F 67% 30.33 in 10.0 mi North 13.8 mph 24.2 mph N/A   Overcast
8:55 AM 53.6 °F 41.0 °F 62% 30.34 in 10.0 mi North 9.2 mph 19.6 mph N/A   Overcast
9:35 AM 53.6 °F 39.2 °F 58% 30.35 in 10.0 mi North 12.7 mph 18.4 mph N/A   Mostly Cloudy
9:55 AM 53.6 °F 41.0 °F 62% 30.36 in 10.0 mi North 10.4 mph 17.3 mph N/A   Mostly Cloudy
10:15 AM 53.6 °F 41.0 °F 62% 30.35 in 10.0 mi North 10.4 mph 17.3 mph N/A   Mostly Cloudy
10:35 AM 55.4 °F 41.0 °F 58% 30.35 in 10.0 mi North 11.5 mph 17.3 mph N/A   Overcast
10:55 AM 55.4 °F 41.0 °F 58% 30.35 in 10.0 mi North 13.8 mph - N/A   Overcast
11:15 AM 55.4 °F 41.0 °F 58% 30.34 in 10.0 mi North 8.1 mph - N/A   Scattered Clouds
11:35 AM 59.0 °F 42.8 °F 55% 30.34 in 10.0 mi North 10.4 mph 17.3 mph N/A   Scattered Clouds
11:55 AM 57.2 °F 42.8 °F 59% 30.34 in 10.0 mi North 10.4 mph 16.1 mph N/A   Mostly Cloudy
12:15 PM 59.0 °F 41.0 °F 51% 30.33 in 10.0 mi North 12.7 mph 18.4 mph N/A   Overcast
12:35 PM 57.2 °F 41.0 °F 55% 30.33 in 10.0 mi North 11.5 mph 19.6 mph N/A   Overcast
12:55 PM 55.4 °F 41.0 °F 58% 30.32 in 10.0 mi NNW 13.8 mph 19.6 mph N/A   Mostly Cloudy
1:15 PM 55.4 °F 41.0 °F 58% 30.31 in 10.0 mi North 9.2 mph - N/A   Mostly Cloudy
1:35 PM 57.2 °F 41.0 °F 55% 30.30 in 10.0 mi North 11.5 mph 19.6 mph N/A   Overcast
1:55 PM 55.4 °F 41.0 °F 58% 30.30 in 10.0 mi North 12.7 mph 21.9 mph N/A   Overcast
2:15 PM 57.2 °F 41.0 °F 55% 30.30 in 10.0 mi NNW 13.8 mph - N/A   Overcast
2:35 PM 57.2 °F 42.8 °F 59% 30.29 in 10.0 mi NNW 10.4 mph - N/A   Mostly Cloudy
2:55 PM 59.0 °F 42.8 °F 55% 30.29 in 10.0 mi North 10.4 mph 16.1 mph N/A   Clear
3:15 PM 59.0 °F 42.8 °F 55% 30.29 in 10.0 mi NNW 11.5 mph - N/A   Clear
3:55 PM 59.0 °F 44.6 °F 59% 30.29 in 10.0 mi NNW 11.5 mph - N/A   Mostly Cloudy
4:15 PM 59.0 °F 44.6 °F 59% 30.29 in 10.0 mi North 8.1 mph - N/A   Mostly Cloudy
4:35 PM 57.2 °F 44.6 °F 63% 30.30 in 10.0 mi North 8.1 mph - N/A   Mostly Cloudy
4:55 PM 55.4 °F 42.8 °F 63% 30.30 in 10.0 mi NNW 9.2 mph - N/A   Scattered Clouds
5:15 PM 55.4 °F 42.8 °F 63% 30.30 in 10.0 mi North 3.5 mph - N/A   Clear
5:35 PM 53.6 °F 42.8 °F 67% 30.31 in 10.0 mi North 5.8 mph - N/A   Scattered Clouds
5:55 PM 53.6 °F 44.6 °F 72% 30.31 in 10.0 mi Calm Calm - N/A   Mostly Cloudy
6:15 PM 53.6 °F 42.8 °F 67% 30.32 in 10.0 mi North 4.6 mph - N/A   Overcast
6:55 PM 53.6 °F 42.8 °F 67% 30.33 in 10.0 mi North 3.5 mph - N/A   Scattered Clouds
7:15 PM 51.8 °F 42.8 °F 71% 30.34 in 10.0 mi North 3.5 mph - N/A   Clear
7:35 PM 51.8 °F 42.8 °F 71% 30.34 in 10.0 mi North 3.5 mph - N/A   Clear
7:55 PM 50.0 °F 42.8 °F 76% 30.34 in 10.0 mi Calm Calm - N/A   Clear
8:15 PM 50.0 °F 42.8 °F 76% 30.34 in 10.0 mi Calm Calm - N/A   Clear
8:35 PM 48.2 °F 42.8 °F 82% 30.35 in 10.0 mi Calm Calm - N/A   Clear
8:55 PM 48.2 °F 42.8 °F 82% 30.34 in 10.0 mi Calm Calm - N/A   Clear
9:15 PM 46.4 °F 42.8 °F 87% 30.34 in 10.0 mi Calm Calm - N/A   Clear
9:35 PM 44.6 °F 42.8 °F 93% 30.34 in 10.0 mi Calm Calm - N/A   Clear
9:55 PM 44.6 °F 41.0 °F 87% 30.34 in 10.0 mi Calm Calm - N/A   Clear
10:15 PM 42.8 °F 41.0 °F 93% 30.34 in 10.0 mi Calm Calm - N/A   Clear
10:35 PM 42.8 °F 41.0 °F 93% 30.34 in 10.0 mi Calm Calm - N/A   Clear
10:55 PM 42.8 °F 41.0 °F 93% 30.34 in 10.0 mi Calm Calm - N/A   Clear
11:35 PM 42.8 °F 41.0 °F 93% 30.35 in 10.0 mi Calm Calm - N/A   Clear
11:55 PM 42.8 °F 41.0 °F 93% 30.35 in 10.0 mi Calm Calm - N/A   Clear